Weather History for KIRS - March, 2014

Change the Weather History Date:

Saturday, March 15, 2014

  Actual Average (KHAI) Record (KHAI)
Temperature  
Mean Temperature 32 °F -  
Max Temperature 37 °F 46 °F 79 °F (2012)
Min Temperature 28 °F 27 °F 1 °F (1993)
Degree Days  
Heating Degree Days 32    
Moisture  
Dew Point 25 °F    
Average Humidity 68    
Maximum Humidity 81    
Minimum Humidity 52    
Precipitation  
Precipitation 0.00 in - - ()
Sea Level Pressure  
Sea Level Pressure 30.01 in    
Wind  
Wind Speed 10 mph (WNW)    
Max Wind Speed 15 mph    
Max Gust Speed 22 mph    
Visibility 10 miles    
Events      
Averages and records for this station are not official NWS values.
T = Trace of Precipitation, MM = Missing Value Source: NWS Daily Summary

Daily Weather History Graph

Daily Weather History Graph

Search for Another Location

Airport or City:

Trip Planner

Search our weather history database for the weather conditions in past years. The results will help you decide how hot, cold, wet, or windy it might be!

Date:

Astronomy

Mar. 15, 2014 Rise Set
Actual Time 7:53 AM EDT 7:48 PM EDT
Civil Twilight 7:25 AM EDT 8:16 PM EDT
Nautical Twilight 6:53 AM EDT 8:48 PM EDT
Astronomical Twilight 6:20 AM EDT 9:21 PM EDT
Moon 7:06 PM EDT (3/15) 7:05 AM EDT (3/15)
Length of Visible Light 12h 50m
Length of Day
11h 54m
Waxing Gibbous, 99% of the Moon is Illuminated
Mar 15
Waxing Gibbous
Mar 16
Full
Mar 23
Last Quarter
Mar 30
New
Apr 7
First Quarter

Hourly Weather History & Observations

Time (EDT) Temp. Windchill Dew Point Humidity Pressure Visibility Wind Dir Wind Speed Gust Speed Precip Events Conditions
12:14 AM 37.4 °F 30.3 °F 28.4 °F 70% 29.80 in 10.0 mi West 10.4 mph - N/A   Scattered Clouds
12:35 AM 37.4 °F 29.3 °F 28.4 °F 70% 29.80 in 10.0 mi West 12.7 mph 16.1 mph N/A   Mostly Cloudy
12:55 AM 37.4 °F 30.8 °F 28.4 °F 70% 29.79 in 10.0 mi West 9.2 mph - N/A   Scattered Clouds
1:14 AM 37.4 °F 29.3 °F 30.2 °F 75% 29.79 in 10.0 mi West 12.7 mph 17.3 mph N/A   Clear
1:35 AM 37.4 °F 29.8 °F 30.2 °F 75% 29.79 in 10.0 mi West 11.5 mph - N/A   Clear
1:55 AM 35.6 °F 27.1 °F 30.2 °F 81% 29.79 in 10.0 mi West 12.7 mph - N/A   Clear
2:14 AM 35.6 °F 28.6 °F 30.2 °F 81% 29.79 in 10.0 mi West 9.2 mph - N/A   Clear
2:35 AM 35.6 °F 28.0 °F 30.2 °F 81% - 10.0 mi WSW 10.4 mph - N/A   Clear
2:55 AM 35.6 °F 28.0 °F 30.2 °F 81% 29.81 in 10.0 mi WSW 10.4 mph - N/A   Clear
3:14 AM 35.6 °F 27.5 °F 30.2 °F 81% 29.81 in 10.0 mi West 11.5 mph 18.4 mph N/A   Scattered Clouds
3:35 AM 35.6 °F 28.0 °F 30.2 °F 81% 29.81 in 10.0 mi West 10.4 mph 16.1 mph N/A   Scattered Clouds
3:55 AM 35.6 °F 27.5 °F 28.4 °F 75% 29.82 in 10.0 mi West 11.5 mph 16.1 mph N/A   Scattered Clouds
4:15 AM 35.6 °F 28.0 °F 28.4 °F 75% 29.81 in 10.0 mi West 10.4 mph 16.1 mph N/A   Mostly Cloudy
4:35 AM 35.6 °F 27.5 °F 28.4 °F 75% 29.81 in 10.0 mi West 11.5 mph 17.3 mph N/A   Scattered Clouds
4:54 AM 35.6 °F 27.5 °F 28.4 °F 75% 29.82 in 10.0 mi West 11.5 mph - N/A   Scattered Clouds
5:15 AM 35.6 °F 28.0 °F 28.4 °F 75% 29.83 in 10.0 mi West 10.4 mph 17.3 mph N/A   Scattered Clouds
5:35 AM 35.6 °F 27.5 °F 28.4 °F 75% 29.84 in 10.0 mi West 11.5 mph - N/A   Scattered Clouds
5:54 AM 35.6 °F 27.5 °F 28.4 °F 75% 29.85 in 10.0 mi West 11.5 mph - N/A   Mostly Cloudy
6:15 AM 35.6 °F 29.2 °F 28.4 °F 75% 29.86 in 10.0 mi West 8.1 mph - N/A   Mostly Cloudy
6:35 AM 35.6 °F 28.6 °F 30.2 °F 81% 29.87 in 10.0 mi West 9.2 mph - N/A   Mostly Cloudy
6:54 AM 33.8 °F 26.4 °F 28.4 °F 81% 29.87 in 10.0 mi WNW 9.2 mph - N/A   Mostly Cloudy
7:15 AM 33.8 °F 27.0 °F 28.4 °F 81% 29.89 in 10.0 mi West 8.1 mph - N/A   Scattered Clouds
7:35 AM 33.8 °F 27.0 °F 28.4 °F 81% 29.89 in 10.0 mi West 8.1 mph - N/A   Scattered Clouds
7:55 AM 33.8 °F 27.0 °F 26.6 °F 75% 29.90 in 10.0 mi West 8.1 mph - N/A   Clear
8:15 AM 33.8 °F 26.4 °F 26.6 °F 75% 29.92 in 10.0 mi West 9.2 mph - N/A   Clear
8:34 AM 33.8 °F 26.4 °F 26.6 °F 75% 29.93 in 10.0 mi WNW 9.2 mph - N/A   Clear
8:55 AM 33.8 °F 24.8 °F 26.6 °F 75% 29.95 in 10.0 mi NW 12.7 mph 19.6 mph N/A   Mostly Cloudy
9:15 AM 33.8 °F 26.4 °F 26.6 °F 75% 29.96 in 10.0 mi WNW 9.2 mph - N/A   Mostly Cloudy
9:34 AM 33.8 °F 26.4 °F 26.6 °F 75% 29.97 in 10.0 mi WNW 9.2 mph - N/A   Overcast
9:55 AM 33.8 °F 27.0 °F 26.6 °F 75% 29.98 in 10.0 mi NW 8.1 mph - N/A   Scattered Clouds
10:15 AM 33.8 °F 25.3 °F 26.6 °F 75% 29.99 in 10.0 mi NW 11.5 mph 18.4 mph N/A   Clear
10:34 AM 35.6 °F 28.6 °F 26.6 °F 70% 30.00 in 10.0 mi NW 9.2 mph 18.4 mph N/A   Scattered Clouds
10:55 AM 35.6 °F 26.6 °F 26.6 °F 70% 30.01 in 10.0 mi NW 13.8 mph 18.4 mph N/A   Scattered Clouds
11:15 AM 35.6 °F 28.0 °F 26.6 °F 70% 30.03 in 10.0 mi NNW 10.4 mph 20.7 mph N/A   Clear
11:34 AM 35.6 °F 27.1 °F 24.8 °F 65% 30.03 in 10.0 mi NW 12.7 mph 20.7 mph N/A   Scattered Clouds
11:55 AM 35.6 °F 26.6 °F 24.8 °F 65% 30.04 in 10.0 mi NW 13.8 mph 20.7 mph N/A   Clear
12:15 PM 35.6 °F 26.2 °F 24.8 °F 65% 30.03 in 10.0 mi NNW 15.0 mph 21.9 mph N/A   Clear
12:34 PM 35.6 °F 29.9 °F 24.8 °F 65% 30.04 in 10.0 mi NNW 6.9 mph - N/A   Clear
12:55 PM 37.4 °F 30.8 °F 24.8 °F 60% 30.06 in 10.0 mi WNW 9.2 mph - N/A   Clear
1:15 PM 37.4 °F 32.8 °F 24.8 °F 60% 30.07 in 10.0 mi WNW 5.8 mph - N/A   Clear
1:34 PM 37.4 °F 31.4 °F 23.0 °F 56% 30.07 in 10.0 mi West 8.1 mph - N/A   Clear
1:55 PM 37.4 °F 30.8 °F 23.0 °F 56% 30.08 in 10.0 mi West 9.2 mph - N/A   Clear
2:14 PM 37.4 °F 30.3 °F 23.0 °F 56% 30.09 in 10.0 mi West 10.4 mph - N/A   Clear
2:35 PM 37.4 °F 29.8 °F 21.2 °F 52% 30.09 in 10.0 mi West 11.5 mph 16.1 mph N/A   Clear
2:55 PM 37.4 °F 32.8 °F 21.2 °F 52% 30.10 in 10.0 mi WNW 5.8 mph - N/A   Scattered Clouds
3:14 PM 37.4 °F 31.4 °F 23.0 °F 56% 30.09 in 10.0 mi West 8.1 mph - N/A   Overcast
3:35 PM 37.4 °F 32.1 °F 23.0 °F 56% 30.09 in 10.0 mi West 6.9 mph - N/A   Mostly Cloudy
3:55 PM 35.6 °F 28.6 °F 21.2 °F 56% 30.09 in 10.0 mi NW 9.2 mph - N/A   Mostly Cloudy
4:14 PM 35.6 °F 28.6 °F 21.2 °F 56% 30.10 in 10.0 mi WNW 9.2 mph - N/A   Mostly Cloudy
4:35 PM 37.4 °F 30.8 °F 23.0 °F 56% 30.09 in 10.0 mi WNW 9.2 mph - N/A   Mostly Cloudy
4:55 PM 37.4 °F 29.8 °F 24.8 °F 60% 30.10 in 10.0 mi NNW 11.5 mph - N/A   Overcast
5:14 PM 35.6 °F 29.2 °F 24.8 °F 65% 30.11 in 10.0 mi NW 8.1 mph - N/A   Overcast
5:35 PM 35.6 °F 28.0 °F 21.2 °F 56% 30.11 in 10.0 mi NW 10.4 mph - N/A   Overcast
5:55 PM 35.6 °F 27.5 °F 23.0 °F 60% 30.11 in 10.0 mi NNW 11.5 mph - N/A   Overcast
6:14 PM 35.6 °F 28.6 °F 21.2 °F 56% 30.12 in 10.0 mi NW 9.2 mph - N/A   Overcast
6:35 PM 35.6 °F 29.2 °F 21.2 °F 56% 30.12 in 10.0 mi NNW 8.1 mph - N/A   Scattered Clouds
6:55 PM 33.8 °F 25.3 °F 21.2 °F 60% 30.13 in 10.0 mi NW 11.5 mph - N/A   Mostly Cloudy
7:14 PM 33.8 °F 27.0 °F 21.2 °F 60% 30.14 in 10.0 mi NW 8.1 mph - N/A   Overcast
7:35 PM 32.0 °F 25.6 °F 21.2 °F 64% 30.15 in 10.0 mi NNW 6.9 mph - N/A   Overcast
7:55 PM 32.0 °F 24.8 °F 21.2 °F 64% 30.16 in 10.0 mi NNW 8.1 mph - N/A   Mostly Cloudy
8:14 PM 30.2 °F 21.3 °F 19.4 °F 64% 30.16 in 10.0 mi NW 10.4 mph - N/A   Scattered Clouds
8:35 PM 30.2 °F 23.4 °F 21.2 °F 69% 30.16 in 10.0 mi NNW 6.9 mph - N/A   Mostly Cloudy
8:55 PM 30.2 °F 21.9 °F 19.4 °F 64% 30.17 in 10.0 mi NNW 9.2 mph - N/A   Overcast
9:14 PM 30.2 °F 23.4 °F 19.4 °F 64% 30.18 in 10.0 mi NNW 6.9 mph - N/A   Overcast
9:35 PM 30.2 °F 24.3 °F 19.4 °F 64% 30.19 in 10.0 mi NNW 5.8 mph - N/A   Overcast
9:55 PM 30.2 °F 24.3 °F 19.4 °F 64% 30.19 in 10.0 mi NNW 5.8 mph - N/A   Overcast
10:14 PM 30.2 °F 26.7 °F 19.4 °F 64% 30.21 in 10.0 mi NNW 3.5 mph - N/A   Overcast
10:35 PM 30.2 °F 23.4 °F 19.4 °F 64% 30.23 in 10.0 mi North 6.9 mph - N/A   Overcast
10:55 PM 28.4 °F 18.5 °F 17.6 °F 64% 30.23 in 10.0 mi North 11.5 mph - N/A   Overcast
11:14 PM 28.4 °F 19.1 °F 17.6 °F 64% 30.23 in 10.0 mi North 10.4 mph - N/A   Overcast
11:35 PM 28.4 °F 20.4 °F 15.8 °F 59% 30.23 in 10.0 mi North 8.1 mph - N/A   Overcast
11:54 PM 28.4 °F 19.1 °F 14.0 °F 55% 30.23 in 10.0 mi North 10.4 mph - N/A   Overcast